• In Hungary
  • List of Countries
  • For 7 days
  • Water Temperature
  • Satellite Maps
  • Weather Map
  • News
  • Weather Widgets
  • user-avatar
    Login

    Hourly Weather Mlodow

    Today, 21 October, Sunday

    Time Temperature Precipitation Wind Pressure Humidity
    00:00 +7°C° 0.2 mm 3 mps 725 mmHg 84%
    01:00 +5°C° 0.2 mm 3 mps 725 mmHg 83%
    02:00 +5°C° 0.3 mm 3 mps 725 mmHg 85%
    03:00 +4°C° 0.3 mm 3 mps 725 mmHg 87%
    04:00 +4°C° 0.3 mm 3 mps 724 mmHg 89%
    05:00 +4°C° 0.6 mm 3 mps 725 mmHg 90%
    06:00 +5°C° 0.6 mm 3 mps 725 mmHg 90%
    07:00 +5°C° 0.6 mm 3 mps 725 mmHg 90%
    08:00 +5°C° 0.5 mm 3 mps 725 mmHg 90%
    09:00 +7°C° 0.5 mm 3 mps 726 mmHg 90%
    10:00 +7°C° 0.5 mm 3 mps 726 mmHg 90%
    11:00 +8°C° 0.1 mm 3 mps 726 mmHg 86%
    12:00 +8°C° 0.1 mm 3 mps 726 mmHg 83%
    13:00 +9°C° 0.1 mm 3 mps 726 mmHg 80%
    14:00 +9°C° 0 mm 3 mps 726 mmHg 80%
    15:00 +9°C° 0 mm 3 mps 727 mmHg 79%
    16:00 +9°C° 0 mm 2 mps 727 mmHg 79%
    17:00 +8°C° 0 mm 2 mps 727 mmHg 81%
    18:00 +7°C° 0 mm 2 mps 727 mmHg 84%
    19:00 +6°C° 0 mm 2 mps 727 mmHg 87%
    20:00 +6°C° 0 mm 1 mps 727 mmHg 88%
    21:00 +6°C° 0 mm 1 mps 728 mmHg 89%
    22:00 +6°C° 0 mm 1 mps 728 mmHg 90%
    23:00 +5°C° 0 mm 1 mps 728 mmHg 90%

    Tomorrow, 22 October, Monday

    Time Temperature Precipitation Wind Pressure Humidity
    00:00 +5°C° 0 mm 1 mps 728 mmHg 89%
    01:00 +5°C° 0 mm 1 mps 728 mmHg 89%
    02:00 +5°C° 0 mm 1 mps 727 mmHg 89%
    03:00 +4°C° 0 mm 1 mps 727 mmHg 88%
    04:00 +4°C° 0 mm 1 mps 727 mmHg 88%
    05:00 +4°C° 0 mm 1 mps 727 mmHg 86%
    06:00 +5°C° 0 mm 1 mps 727 mmHg 85%
    07:00 +5°C° 0 mm 1 mps 727 mmHg 84%
    08:00 +7°C° 0 mm 1 mps 727 mmHg 75%
    09:00 +9°C° 0 mm 1 mps 727 mmHg 67%
    10:00 +11°C° 0 mm 1 mps 727 mmHg 58%
    11:00 +12°C° 0 mm 1 mps 727 mmHg 55%
    12:00 +13°C° 0 mm 1 mps 727 mmHg 53%
    13:00 +14°C° 0 mm 1 mps 726 mmHg 50%
    14:00 +13°C° 0 mm 1 mps 726 mmHg 55%
    15:00 +12°C° 0 mm 1 mps 726 mmHg 60%
    16:00 +11°C° 0 mm 1 mps 725 mmHg 65%
    17:00 +9°C° 0 mm 1 mps 725 mmHg 70%
    18:00 +8°C° 0 mm 1 mps 725 mmHg 74%
    19:00 +7°C° 0 mm 1 mps 725 mmHg 79%
    20:00 +7°C° 0 mm 1 mps 725 mmHg 80%
    21:00 +6°C° 0 mm 1 mps 725 mmHg 82%
    22:00 +6°C° 0 mm 1 mps 725 mmHg 83%
    23:00 +6°C° 0.1 mm 1 mps 725 mmHg 83%

    Day after tomorrow, 23 October, Tuesday

    Time Temperature Precipitation Wind Pressure Humidity
    00:00 +5°C° 0.1 mm 2 mps 725 mmHg 83%
    01:00 +6°C° 0.1 mm 2 mps 725 mmHg 83%
    02:00 +6°C° 0.4 mm 2 mps 725 mmHg 85%
    03:00 +6°C° 0.4 mm 2 mps 725 mmHg 86%
    04:00 +5°C° 0.4 mm 3 mps 725 mmHg 88%
    05:00 +6°C° 0.1 mm 2 mps 725 mmHg 89%
    06:00 +5°C° 0.1 mm 2 mps 725 mmHg 89%
    07:00 +5°C° 0.1 mm 2 mps 725 mmHg 90%
    08:00 +5°C° 0 mm 3 mps 725 mmHg 83%
    09:00 +5°C° 0 mm 3 mps 725 mmHg 77%
    10:00 +7°C° 0 mm 3 mps 725 mmHg 70%
    11:00 +8°C° 0 mm 3 mps 724 mmHg 66%
    12:00 +9°C° 0 mm 3 mps 723 mmHg 61%
    13:00 +9°C° 0 mm 3 mps 722 mmHg 56%
    14:00 +9°C° 0.1 mm 3 mps 721 mmHg 59%
    15:00 +8°C° 0.1 mm 3 mps 720 mmHg 62%
    16:00 +8°C° 0.1 mm 3 mps 719 mmHg 65%
    17:00 +7°C° 0.3 mm 3 mps 718 mmHg 69%
    18:00 +6°C° 0.3 mm 4 mps 717 mmHg 72%
    19:00 +6°C° 0.3 mm 4 mps 716 mmHg 76%
    20:00 +6°C° 0.3 mm 5 mps 715 mmHg 77%
    21:00 +6°C° 0.3 mm 5 mps 714 mmHg 78%
    22:00 +5°C° 0.3 mm 6 mps 713 mmHg 79%
    23:00 +5°C° 0.5 mm 6 mps 712 mmHg 80%

    24 October, Wednesday

    Time Temperature Precipitation Wind Pressure Humidity
    00:00 +7°C° 0.5 mm 6 mps 712 mmHg 81%
    01:00 +6°C° 0.5 mm 7 mps 711 mmHg 82%
    02:00 +6°C° 1.2 mm 7 mps 711 mmHg 82%
    03:00 +5°C° 1.2 mm 6 mps 710 mmHg 82%
    04:00 +5°C° 1.2 mm 6 mps 710 mmHg 81%
    05:00 +4°C° 0.4 mm 7 mps 710 mmHg 79%
    06:00 +4°C° 0.4 mm 7 mps 711 mmHg 77%
    07:00 +2°C° 0.4 mm 8 mps 711 mmHg 75%
    08:00 +2°C° 0.4 mm 8 mps 711 mmHg 70%
    09:00 +2°C° 0.4 mm 8 mps 712 mmHg 66%
    10:00 +2°C° 0.4 mm 8 mps 712 mmHg 61%
    11:00 +2°C° 0.1 mm 8 mps 713 mmHg 58%
    12:00 +2°C° 0.1 mm 8 mps 713 mmHg 55%
    13:00 +2°C° 0.1 mm 8 mps 713 mmHg 51%
    14:00 +3°C° 0.1 mm 7 mps 713 mmHg 53%
    15:00 +3°C° 0.1 mm 6 mps 713 mmHg 54%
    16:00 +2°C° 0.1 mm 5 mps 714 mmHg 56%
    17:00 +2°C° 0.1 mm 5 mps 714 mmHg 59%
    18:00 +1°C° 0.1 mm 5 mps 715 mmHg 62%
    19:00 +1°C° 0.1 mm 4 mps 715 mmHg 65%
    20:00 +1°C° 0 mm 5 mps 715 mmHg 66%
    21:00 0°C° 0 mm 5 mps 716 mmHg 67%
    22:00 0°C° 0 mm 5 mps 716 mmHg 67%
    23:00 0°C° 0 mm 5 mps 716 mmHg 70%

    25 October, Thursday

    Time Temperature Precipitation Wind Pressure Humidity
    00:00 -1°C° 0 mm 5 mps 716 mmHg 73%
    01:00 -1°C° 0 mm 5 mps 716 mmHg 76%
    02:00 -1°C° 0 mm 5 mps 716 mmHg 77%
    03:00 -1°C° 0 mm 4 mps 717 mmHg 79%
    04:00 -1°C° 0 mm 4 mps 717 mmHg 81%
    05:00 -1°C° 0 mm 4 mps 717 mmHg 81%
    06:00 -1°C° 0 mm 4 mps 717 mmHg 81%
    07:00 0°C° 0 mm 4 mps 717 mmHg 81%
    08:00 +1°C° 0.1 mm 4 mps 717 mmHg 77%
    09:00 +4°C° 0.1 mm 4 mps 717 mmHg 72%
    10:00 +5°C° 0.1 mm 4 mps 717 mmHg 68%
    11:00 +5°C° 0.8 mm 4 mps 716 mmHg 74%
    12:00 +5°C° 0.8 mm 3 mps 716 mmHg 80%
    13:00 +5°C° 0.8 mm 3 mps 715 mmHg 86%
    14:00 +6°C° 1.2 mm 4 mps 715 mmHg 87%
    15:00 +6°C° 1.2 mm 4 mps 715 mmHg 88%
    16:00 +7°C° 1.2 mm 4 mps 715 mmHg 89%
    17:00 +6°C° 0.2 mm 4 mps 715 mmHg 89%
    18:00 +6°C° 0.2 mm 4 mps 715 mmHg 90%
    19:00 +6°C° 0.2 mm 4 mps 716 mmHg 90%
    20:00 +6°C° 0.1 mm 4 mps 716 mmHg 91%
    21:00 +6°C° 0.1 mm 4 mps 716 mmHg 92%
    22:00 +5°C° 0.1 mm 4 mps 716 mmHg 92%
    23:00 +5°C° 0 mm 4 mps 717 mmHg 92%

    26 October, Friday

    Time Temperature Precipitation Wind Pressure Humidity
    00:00 +5°C° 0 mm 3 mps 717 mmHg 92%
    01:00 +5°C° 0 mm 3 mps 717 mmHg 92%
    02:00 +5°C° 0 mm 3 mps 717 mmHg 92%
    03:00 +5°C° 0 mm 3 mps 717 mmHg 92%
    04:00 +5°C° 0 mm 3 mps 717 mmHg 92%
    05:00 +6°C° 0 mm 2 mps 717 mmHg 91%
    06:00 +6°C° 0 mm 2 mps 717 mmHg 91%
    07:00 +6°C° 0 mm 2 mps 717 mmHg 91%
    08:00 +7°C° 0 mm 2 mps 717 mmHg 85%
    09:00 +9°C° 0 mm 2 mps 717 mmHg 78%
    10:00 +12°C° 0 mm 2 mps 717 mmHg 72%
    11:00 +11°C° 0 mm 3 mps 717 mmHg 69%
    12:00 +12°C° 0 mm 3 mps 717 mmHg 67%
    13:00 +12°C° 0 mm 3 mps 716 mmHg 64%
    14:00 +11°C° 0 mm 3 mps 716 mmHg 69%
    15:00 +10°C° 0 mm 2 mps 715 mmHg 73%
    16:00 +9°C° 0 mm 2 mps 715 mmHg 78%
    17:00 +9°C° 0 mm 2 mps 715 mmHg 82%
    18:00 +8°C° 0 mm 2 mps 715 mmHg 85%
    19:00 +7°C° 0 mm 2 mps 714 mmHg 89%
    20:00 +7°C° 0 mm 2 mps 714 mmHg 89%
    21:00 +7°C° 0 mm 3 mps 714 mmHg 89%
    22:00 +7°C° 0 mm 3 mps 713 mmHg 90%
    23:00 +8°C° 0 mm 3 mps 713 mmHg 90%
    Show more